Weather in Afyonkarahisar

Turkey     38°45′15″N   30°33′52″E
temp.,
°C
wind,
m/s
gust,
m/s
humid.,
%
clouds,
%
prec.,
mm/h
press.,
hPa
HPBL,
m
18 april, sun
sun1800:00+15ssw61646100 0.0 1014674
03:00+15ssw81452100 0.0 1016819
06:00+13wsw227499 0.9 101725
09:00+15wsw31068100 3.3 1018896
12:00+17wsw91749100 0.1 10181851
15:00+17w81149100 0.1 10171187
18:00+16nw445877 0.0 1017891
21:00+13e116981 0.0 101814
19 april, mon
mon1900:00+12nne007194 0.0 101811
03:00+11n1174100 0.0 101711
06:00+10se2278100 0.0 101615
09:00+14se2362100 0.0 1015347
12:00+18nnw3442100 0.0 10121120
15:00+19ne144330 0.1 1009539
18:00+19wsw374197 0.1 1006339
21:00+14wnw466676 0.1 1008160
20 april, tue
tue2000:00+11w248386 0.0 1008145
03:00+10w3580100 0.0 1008178
06:00+8w487313 0.0 1009243
09:00+11wsw710390 0.0 10111370
12:00+14wsw912230 0.0 10112143
15:00+14wsw911292 0.0 10112382
18:00+13w78346 0.0 10112232
21:00+8wnw35545 0.0 1015123
21 april, wed
wed2100:00+6w22620 0.0 101615
03:00+5wsw11694 0.0 101710
06:00+4wsw11755 0.0 101810
09:00+8wnw125738 0.0 1018582
12:00+12w2330100 0.0 10161986
15:00+15w452374 0.0 10152641
18:00+14wsw552598 0.0 10162240
21:00+9w4738100 0.0 1018141
22 april, thu
thu2200:00+7wnw22550 0.0 102019
03:00+6wnw11700 0.0 102111
06:00+5wnw11750 0.0 102110
09:00+9n11590 0.0 1021459
12:00+13n11341 0.0 10201734
15:00+16n33264 0.0 10192466
18:00+16nne232539 0.0 10181913
21:00+11n11364 0.0 101916